This demonstration page uses our WeatherBlox Daily Observations layout. Learn more.

Left ArrowRight Arrow

Hourly Observations for March 26, 2015

Temp ( °F °C ) Dew Point ( °F °C ) Humidity (%) Winds ( mph kmh ) Pressure ( in mb ) Visibility ( mi km ) Precip ( " mm )
12:15 am 00:15 Clear 45 7 39 4 81 81 S 3 6 30.15 1021 10 16 N/A
12:35 am 00:35 Clear 45 7 37 3 76 76 S 3 6 30.15 1021 10 16 N/A
12:55 am 00:55 Clear 45 7 37 3 76 76 S 5 7 30.12 1020 10 16 N/A
1:15 am 01:15 Partly Cloudy 45 7 37 3 76 76 S 3 6 30.12 1020 10 16 N/A
1:35 am 01:35 Clear 43 6 37 3 81 81 SSW 3 6 30.12 1020 10 16 N/A
1:55 am 01:55 Clear 41 5 37 3 87 87 N N/A 30.12 1020 10 16 N/A
2:15 am 02:15 Clear 41 5 37 3 87 87 N N/A 30.09 1019 10 16 N/A
2:35 am 02:35 Clear 43 6 37 3 81 81 N N/A 30.09 1019 10 16 N/A
2:55 am 02:55 Clear 41 5 37 3 87 87 N N/A 30.09 1019 10 16 N/A
3:15 am 03:15 Clear 41 5 37 3 87 87 NW 3 6 30.09 1019 10 16 N/A
3:35 am 03:35 Partly Cloudy 41 5 37 3 87 87 N N/A 30.09 1019 10 16 N/A
3:55 am 03:55 Mostly Cloudy 41 5 37 3 87 87 N N/A 30.06 1018 10 16 N/A
4:15 am 04:15 Mostly Cloudy 39 4 37 3 93 93 N N/A 30.06 1018 10 16 N/A
4:35 am 04:35 Mostly Cloudy 41 5 39 4 93 93 N N/A 30.03 1017 10 16 N/A
4:55 am 04:55 Partly Cloudy 41 5 37 3 87 87 N N/A 30.03 1017 10 16 N/A
5:15 am 05:15 Partly Cloudy 39 4 37 3 93 93 N N/A 30.03 1017 10 16 N/A
5:35 am 05:35 Partly Cloudy 37 3 37 3 100 100 N N/A 30.00 1016 10 16 N/A
5:55 am 05:55 Partly Cloudy 37 3 37 3 100 100 N N/A 30.00 1016 10 16 N/A
6:15 am 06:15 Mostly Cloudy 39 4 37 3 93 93 N N/A 30.00 1016 10 16 N/A
6:35 am 06:35 Mostly Cloudy 39 4 37 3 93 93 N N/A 30.00 1016 10 16 N/A
6:55 am 06:55 Partly Cloudy 39 4 37 3 93 93 SSE 5 7 29.97 1015 10 16 N/A
7:15 am 07:15 Partly Cloudy 37 3 36 2 93 93 N N/A 29.97 1015 10 16 N/A
7:35 am 07:35 Mostly Cloudy 41 5 39 4 93 93 N N/A 29.97 1015 10 16 N/A
7:55 am 07:55 Cloudy 43 6 41 5 93 93 N N/A 29.97 1015 10 16 N/A
8:15 am 08:15 Cloudy 45 7 43 6 93 93 N N/A 29.97 1015 10 16 N/A
8:35 am 08:35 Cloudy with Nearby Thunderstorms 48 9 45 7 87 87 WSW 3 6 29.94 1014 10 16 N/A
8:55 am 08:55 Cloudy 50 10 46 8 88 88 N N/A 29.91 1013 10 16 N/A
9:15 am 09:15 Cloudy 52 11 46 8 82 82 S 5 7 29.91 1013 7 11 N/A
9:35 am 09:35 Cloudy 52 11 46 8 82 82 N N/A 29.91 1013 10 16 N/A
9:55 am 09:55 Cloudy with Rain 54 12 50 10 88 88 N N/A 29.91 1013 7 11 N/A
10:15 am 10:15 Cloudy with Light Rain 54 12 52 11 94 94 SSE 3 6 29.88 1012 7 11 N/A
10:35 am 10:35 Cloudy with Nearby Thunderstorms 55 13 55 13 100 100 S 6 9 29.88 1012 7 11 N/A
10:55 am 10:55 Cloudy with Thunderstorms 57 14 55 13 94 94 S 8 13 29.88 1012 10 16 0.01 0.25
11:15 am 11:15 Cloudy 59 15 57 14 94 94 S 13 20 29.85 1011 7 11 N/A
11:35 am 11:35 Cloudy 59 15 57 14 94 94 S 12 19 29.83 1010 10 16 N/A
11:55 am 11:55 Cloudy 59 15 59 15 100 100 SSW 16 26 29.80 1009 10 16 N/A
12:15 pm 12:15 Cloudy 61 16 59 15 94 94 SSW 14 22 29.80 1009 10 16 N/A
12:35 pm 12:35 Cloudy 63 17 59 15 88 88 S 17 28 29.80 1009 10 16 N/A
12:55 pm 12:55 Cloudy 63 17 59 15 88 88 S 13 20 29.77 1008 10 16 N/A
1:15 pm 13:15 Cloudy 63 17 59 15 88 88 S 9 15 29.77 1008 10 16 N/A
1:35 pm 13:35 Cloudy 64 18 61 16 88 88 S 17 28 29.74 1007 10 16 N/A
1:55 pm 13:55 Partly Cloudy 70 21 61 16 73 73 S 16 26 29.71 1006 10 16 N/A
2:15 pm 14:15 Partly Cloudy 72 22 61 16 69 69 S 20 31 29.68 1005 10 16 N/A
2:35 pm 14:35 Partly Cloudy 73 23 59 15 61 61 S 14 22 29.68 1005 10 16 N/A
2:55 pm 14:55 Partly Cloudy 73 23 59 15 61 61 S 23 37 29.65 1004 10 16 N/A
3:15 pm 15:15 Sunny 73 23 59 15 61 61 S 21 33 29.65 1004 10 16 N/A
3:35 pm 15:35 Sunny 73 23 59 15 61 61 S 18 30 29.62 1003 10 16 N/A
3:55 pm 15:55 Sunny 73 23 59 15 61 61 S 22 35 29.62 1003 10 16 N/A
4:15 pm 16:15 Sunny 75 24 59 15 57 57 S 23 37 29.62 1003 10 16 N/A
4:35 pm 16:35 Sunny 75 24 59 15 57 57 S 20 31 29.62 1003 10 16 N/A
4:55 pm 16:55 Sunny 75 24 57 14 54 54 S 22 35 29.62 1003 10 16 N/A
5:15 pm 17:15 Sunny 73 23 57 14 57 57 S 18 30 29.59 1002 10 16 N/A
5:35 pm 17:35 Sunny 73 23 57 14 57 57 S 14 22 29.59 1002 10 16 N/A
5:55 pm 17:55 Sunny 73 23 59 15 61 61 S 18 30 29.59 1002 10 16 N/A
6:15 pm 18:15 Mostly Cloudy 72 22 59 15 65 65 SSW 12 19 29.59 1002 10 16 N/A
6:35 pm 18:35 Cloudy with Light Rain 72 22 59 15 65 65 SW 12 19 29.62 1003 10 16 N/A
6:55 pm 18:55 Cloudy with Heavy Rain 68 20 61 16 78 78 NW 12 19 29.62 1003 4 6 0.09 2.29
7:15 pm 19:15 Cloudy 63 17 61 16 94 94 W 7 11 29.65 1004 5 8 0.23 5.84
7:35 pm 19:35 Cloudy 63 17 61 16 94 94 NW 10 17 29.65 1004 10 16 0.23 5.84
7:55 pm 19:55 Cloudy with Rain 63 17 61 16 94 94 NW 6 9 29.68 1005 10 16 0.25 6.35
8:15 pm 20:15 Cloudy with Light Rain 61 16 59 15 94 94 NNW 7 11 29.68 1005 10 16 N/A
8:35 pm 20:35 Cloudy with Light Rain 61 16 59 15 94 94 N 5 7 29.68 1005 10 16 N/A
8:55 pm 20:55 Cloudy 59 15 55 13 88 88 N 15 24 29.68 1005 10 16 N/A
9:15 pm 21:15 Cloudy 55 13 52 11 88 88 NNW 17 28 29.71 1006 10 16 N/A
9:35 pm 21:35 Mostly Cloudy 54 12 50 10 88 88 N 21 33 29.74 1007 10 16 N/A
9:55 pm 21:55 Cloudy 54 12 46 8 77 77 N 15 24 29.74 1007 10 16 N/A
10:15 pm 22:15 Cloudy with Light Rain 52 11 46 8 82 82 NNW 17 28 29.74 1007 10 16 N/A
10:35 pm 22:35 Cloudy 52 11 46 8 82 82 NNW 16 26 29.77 1008 10 16 N/A
10:55 pm 22:55 Cloudy 50 10 45 7 82 82 NNW 14 22 29.77 1008 10 16 N/A
11:15 pm 23:15 Cloudy with Light Rain 50 10 45 7 82 82 NNW 14 22 29.77 1008 10 16 N/A
11:35 pm 23:35 Cloudy 50 10 45 7 82 82 NNW 12 19 29.77 1008 10 16 N/A
11:55 pm 23:55 Cloudy with Drizzle 50 10 45 7 82 82 NNW 12 19 29.77 1008 10 16 N/A

Powered by AerisWeather